Time,TemperatureF,DewpointF,PressureIn,WindDirection,WindDirectionDegrees,WindSpeedMPH,WindSpeedGustMPH,Humidity,HourlyPrecipIn,Conditions,Clouds,dailyrainin,SoftwareType,DateUTC
2013-04-18 00:00:00,47.7,7.4,25.69,NW,308,2.7,6.3,19,0.00,,---,0.00,VWS V13.01,2013-04-18 07:00:00,
2013-04-18 00:20:00,47.3,7.1,25.69,West,281,3.1,5.4,19,0.00,,---,0.00,VWS V13.01,2013-04-18 07:20:00,
2013-04-18 00:40:00,46.9,6.8,25.69,West,276,8.1,8.1,19,0.00,,---,0.00,VWS V13.01,2013-04-18 07:40:00,
2013-04-18 01:00:00,46.4,6.4,25.69,WNW,300,6.7,8.1,19,0.00,,---,0.00,VWS V13.01,2013-04-18 08:00:00,
2013-04-18 01:20:00,46.2,7.4,25.69,WNW,294,4.0,8.3,20,0.00,,---,0.00,VWS V13.01,2013-04-18 08:20:00,
2013-04-18 01:40:00,45.9,7.1,25.69,WNW,288,6.3,8.1,20,0.00,,---,0.00,VWS V13.01,2013-04-18 08:40:00,
2013-04-18 02:00:00,45.5,6.8,25.69,NW,307,8.3,10.1,20,0.00,,---,0.00,VWS V13.01,2013-04-18 09:00:00,
2013-04-18 02:20:00,45.3,6.6,25.69,NW,305,4.9,8.7,20,0.00,,---,0.00,VWS V13.01,2013-04-18 09:20:00,
2013-04-18 02:40:00,45.1,6.5,25.69,WNW,299,7.6,8.3,20,0.00,,---,0.00,VWS V13.01,2013-04-18 09:40:00,
2013-04-18 03:00:00,44.8,6.2,25.69,WNW,296,7.2,8.3,20,0.00,,---,0.00,VWS V13.01,2013-04-18 10:00:00,
2013-04-18 03:20:00,44.6,6.0,25.69,SW,224,3.1,8.3,20,0.00,,---,0.00,VWS V13.01,2013-04-18 10:20:00,
2013-04-18 03:40:00,44.1,5.6,25.69,WSW,244,4.0,7.6,20,0.00,,---,0.00,VWS V13.01,2013-04-18 10:40:00,
2013-04-18 04:00:00,43.5,5.1,25.69,SW,224,3.6,6.3,20,0.00,,---,0.00,VWS V13.01,2013-04-18 11:00:00,
2013-04-18 04:20:00,43.5,5.1,25.69,WSW,258,4.0,7.6,20,0.00,,---,0.00,VWS V13.01,2013-04-18 11:20:00,
2013-04-18 04:40:00,43.3,5.0,25.69,SW,223,3.6,5.8,20,0.00,,---,0.00,VWS V13.01,2013-04-18 11:40:00,
2013-04-18 05:00:00,43.0,4.7,25.69,SW,233,5.4,5.4,20,0.00,,---,0.00,VWS V13.01,2013-04-18 12:00:00,
2013-04-18 05:20:00,42.4,5.3,25.69,NNE,27,0.0,7.2,21,0.00,,---,0.00,VWS V13.01,2013-04-18 12:20:00,
2013-04-18 05:40:00,42.3,5.1,25.69,NW,306,4.0,5.8,21,0.00,,---,0.00,VWS V13.01,2013-04-18 12:40:00,
2013-04-18 06:00:00,41.5,4.5,25.72,WNW,302,0.0,5.8,21,0.00,,---,0.00,VWS V13.01,2013-04-18 13:00:00,
2013-04-18 06:20:00,41.2,4.2,25.72,SW,218,0.0,0.0,21,0.00,,---,0.00,VWS V13.01,2013-04-18 13:20:00,
2013-04-18 06:40:00,41.5,4.5,25.72,West,268,4.9,4.9,21,0.00,,---,0.00,VWS V13.01,2013-04-18 13:40:00,
2013-04-18 07:00:00,43.3,5.0,25.72,WNW,292,4.9,6.3,20,0.00,,---,0.00,VWS V13.01,2013-04-18 14:00:00,
2013-04-18 07:20:00,46.0,7.2,25.75,North,349,2.2,5.8,20,0.00,,---,0.00,VWS V13.01,2013-04-18 14:20:00,
2013-04-18 07:40:00,48.0,7.7,25.75,NE,45,3.1,8.3,19,0.00,,---,0.00,VWS V13.01,2013-04-18 14:40:00,
2013-04-18 08:00:00,49.1,8.6,25.75,North,6,2.2,10.1,19,0.00,,---,0.00,VWS V13.01,2013-04-18 15:00:00,
2013-04-18 08:20:00,50.0,9.4,25.75,NNE,21,6.3,8.7,19,0.00,,---,0.00,VWS V13.01,2013-04-18 15:20:00,
2013-04-18 08:40:00,50.9,10.1,25.75,NE,46,6.7,8.3,19,0.00,,---,0.00,VWS V13.01,2013-04-18 15:40:00,
2013-04-18 09:00:00,51.6,10.7,25.75,NNE,18,3.1,7.6,19,0.00,,---,0.00,VWS V13.01,2013-04-18 16:00:00,
2013-04-18 09:20:00,52.3,13.6,25.75,NNE,20,4.0,8.1,21,0.00,,---,0.00,VWS V13.01,2013-04-18 16:20:00,
2013-04-18 09:40:00,53.4,14.5,25.75,NNE,13,8.3,10.1,21,0.00,,---,0.00,VWS V13.01,2013-04-18 16:40:00,
2013-04-18 10:00:00,54.5,14.3,25.75,WNW,289,8.1,15.0,20,0.00,,---,0.00,VWS V13.01,2013-04-18 17:00:00,
2013-04-18 10:20:00,54.7,14.4,25.75,NW,322,4.9,10.1,20,0.00,,---,0.00,VWS V13.01,2013-04-18 17:20:00,
2013-04-18 10:40:00,55.4,15.0,25.75,SW,230,4.0,9.6,20,0.00,,---,0.00,VWS V13.01,2013-04-18 17:40:00,
2013-04-18 11:00:00,56.5,15.9,25.75,North,6,5.8,8.3,20,0.00,,---,0.00,VWS V13.01,2013-04-18 18:00:00,
2013-04-18 11:20:00,57.7,15.8,25.75,North,357,7.2,12.3,19,0.00,,---,0.00,VWS V13.01,2013-04-18 18:20:00,
2013-04-18 11:40:00,59.4,17.1,25.75,WNW,283,6.3,8.3,19,0.00,,---,0.00,VWS V13.01,2013-04-18 18:40:00,
2013-04-18 12:00:00,61.2,18.6,25.75,East,81,6.3,8.7,19,0.00,,---,0.00,VWS V13.01,2013-04-18 19:00:00,
2013-04-18 12:20:00,62.8,18.7,25.75,WNW,301,3.1,7.6,18,0.00,,---,0.00,VWS V13.01,2013-04-18 19:20:00,
2013-04-18 12:40:00,64.6,20.1,25.75,NW,319,5.8,10.1,18,0.00,,---,0.00,VWS V13.01,2013-04-18 19:40:00,
2013-04-18 13:00:00,66.9,20.7,25.75,North,357,7.2,12.8,17,0.00,,---,0.00,VWS V13.01,2013-04-18 20:00:00,
2013-04-18 13:20:00,67.3,21.0,25.75,West,275,2.7,12.8,17,0.00,,---,0.00,VWS V13.01,2013-04-18 20:20:00,
2013-04-18 13:40:00,68.2,21.7,25.75,NE,34,10.1,15.9,17,0.00,,---,0.00,VWS V13.01,2013-04-18 20:40:00,
2013-04-18 14:00:00,68.4,21.9,25.75,North,0,5.8,11.4,17,0.00,,---,0.00,VWS V13.01,2013-04-18 21:00:00,
2013-04-18 14:20:00,68.4,21.9,25.72,ESE,103,4.9,12.8,17,0.00,,---,0.00,VWS V13.01,2013-04-18 21:20:00,
2013-04-18 14:40:00,69.4,22.8,25.72,NE,55,5.4,8.7,17,0.00,,---,0.00,VWS V13.01,2013-04-18 21:40:00,
2013-04-18 15:00:00,69.8,23.1,25.72,WNW,297,3.6,12.3,17,0.00,,---,0.00,VWS V13.01,2013-04-18 22:00:00,
2013-04-18 15:20:00,70.9,23.9,25.72,North,357,5.4,12.8,17,0.00,,---,0.00,VWS V13.01,2013-04-18 22:20:00,
2013-04-18 15:40:00,70.5,23.6,25.72,NNE,25,10.5,13.6,17,0.00,,---,0.00,VWS V13.01,2013-04-18 22:40:00,
2013-04-18 16:00:00,68.9,22.3,25.72,West,277,5.8,10.5,17,0.00,,---,0.00,VWS V13.01,2013-04-18 23:00:00,
2013-04-18 16:20:00,69.8,23.1,25.72,North,9,6.3,12.8,17,0.00,,---,0.00,VWS V13.01,2013-04-18 23:20:00,
2013-04-18 16:40:00,69.3,22.6,25.72,North,6,3.6,12.8,17,0.00,,---,0.00,VWS V13.01,2013-04-18 23:40:00,
2013-04-18 17:00:00,69.1,22.5,25.72,NNE,13,2.7,11.0,17,0.00,,---,0.00,VWS V13.01,2013-04-19 00:00:00,
2013-04-18 17:20:00,66.7,20.6,25.72,NNE,28,2.7,11.0,17,0.00,,---,0.00,VWS V13.01,2013-04-19 00:20:00,
2013-04-18 17:40:00,65.5,20.9,25.72,NE,39,5.4,11.9,18,0.00,,---,0.00,VWS V13.01,2013-04-19 00:40:00,
2013-04-18 18:00:00,63.9,19.6,25.75,NE,42,8.1,12.3,18,0.00,,---,0.00,VWS V13.01,2013-04-19 01:00:00,
2013-04-18 18:20:00,62.2,19.5,25.75,NE,45,8.3,13.2,19,0.00,,---,0.00,VWS V13.01,2013-04-19 01:20:00,
2013-04-18 18:40:00,61.2,18.6,25.75,North,0,12.8,12.8,19,0.00,,---,0.00,VWS V13.01,2013-04-19 01:40:00,
2013-04-18 19:00:00,59.9,17.6,25.75,NNE,32,8.7,12.8,19,0.00,,---,0.00,VWS V13.01,2013-04-19 02:00:00,
2013-04-18 19:20:00,58.8,16.7,25.75,NE,49,3.6,13.6,19,0.00,,---,0.00,VWS V13.01,2013-04-19 02:20:00,
2013-04-18 19:40:00,57.7,15.8,25.78,NE,52,6.7,11.0,19,0.00,,---,0.00,VWS V13.01,2013-04-19 02:40:00,
2013-04-18 20:00:00,56.8,16.2,25.78,NNE,28,12.8,12.8,20,0.00,,---,0.00,VWS V13.01,2013-04-19 03:00:00,
2013-04-18 20:20:00,56.1,11.9,25.78,NNE,15,6.3,12.8,17,0.00,,---,0.00,VWS V13.01,2013-04-19 03:20:00,
2013-04-18 20:40:00,55.4,11.3,25.81,North,353,7.2,11.0,17,0.00,,---,0.00,VWS V13.01,2013-04-19 03:40:00,
2013-04-18 21:00:00,54.3,11.7,25.81,WNW,282,3.6,7.2,18,0.00,,---,0.00,VWS V13.01,2013-04-19 04:00:00,
2013-04-18 21:20:00,53.2,10.9,25.81,WNW,289,3.6,6.3,18,0.00,,---,0.00,VWS V13.01,2013-04-19 04:20:00,
2013-04-18 21:40:00,51.8,9.7,25.81,West,270,2.7,5.4,18,0.00,,---,0.00,VWS V13.01,2013-04-19 04:40:00,
2013-04-18 22:00:00,51.3,10.4,25.81,West,264,3.1,6.3,19,0.00,,---,0.00,VWS V13.01,2013-04-19 05:00:00,
2013-04-18 22:20:00,50.9,10.1,25.81,WSW,241,2.7,5.4,19,0.00,,---,0.00,VWS V13.01,2013-04-19 05:20:00,
2013-04-18 22:40:00,50.4,9.7,25.81,West,279,3.6,4.0,19,0.00,,---,0.00,VWS V13.01,2013-04-19 05:40:00,
2013-04-18 23:00:00,49.8,9.2,25.84,SW,233,2.7,4.0,19,0.00,,---,0.00,VWS V13.01,2013-04-19 06:00:00,
2013-04-18 23:20:00,49.1,8.6,25.84,SW,219,4.9,4.9,19,0.00,,---,0.00,VWS V13.01,2013-04-19 06:20:00,
2013-04-18 23:40:00,48.0,7.7,25.84,SW,217,4.0,4.9,19,0.00,,---,0.00,VWS V13.01,2013-04-19 06:40:00,